QPF
0.01 0.01 0.01 0.01 0.00 0.00 0.01 0.01 0.02 0.02 0.03 0.02 0.01 0.01 0.00 0.00 0.01 0.01 0.02 0.02 0.03 0.03 0.02 0.02 0.02 0.02 0.01 0.01 0.02 0.02 0.02 0.02 0.02 0.02 0.01 0.01 0.02 0.02 0.01 0.02 0.03 0.03 0.03 0.03
0.00 0.01 0.00 0.00 0.00 0.00 0.00 0.00 0.01 0.02 0.02 0.02 0.01 0.01 0.00 0.00 0.01 0.02 0.04 0.04 0.03 0.03 0.03 0.03 0.02 0.02 0.02 0.01 0.01 0.01 0.01 0.01 0.01 0.02 0.02 0.02 0.02 0.02 0.03 0.03 0.03 0.03 0.02 0.02
0.01 0.00 0.01 0.01 0.00 0.00 0.00 0.00 0.01 0.02 0.02 0.01 0.01 0.01 0.00 0.00 0.01 0.01 0.03 0.04 0.04 0.04 0.04 0.04 0.03 0.03 0.03 0.01 0.01 0.01 0.01 0.01 0.01 0.01 0.02 0.02 0.02 0.02 0.03 0.03 0.03 0.03 0.03 0.01
0.01 0.01 0.02 0.01 0.00 0.00 0.00 0.01 0.01 0.02 0.02 0.02 0.01 0.01 0.00 0.00 0.01 0.01 0.02 0.03 0.03 0.05 0.06 0.06 0.06 0.05 0.04 0.02 0.03 0.02 0.01 0.01 0.01 0.00 0.01 0.02 0.02 0.02 0.02 0.02 0.02 0.02 0.03 0.03
0.02 0.03 0.02 0.01 0.01 0.01 0.01 0.01 0.01 0.02 0.02 0.03 0.03 0.01 0.01 0.00 0.00 0.00 0.01 0.03 0.04 0.05 0.07 0.08 0.08 0.07 0.05 0.02 0.02 0.02 0.02 0.02 0.01 0.01 0.01 0.01 0.02 0.02 0.01 0.01 0.02 0.02 0.02 0.03
0.02 0.02 0.02 0.01 0.00 0.01 0.01 0.02 0.02 0.02 0.02 0.02 0.02 0.01 0.01 0.01 0.00 0.00 0.01 0.01 0.02 0.02 0.03 0.05 0.06 0.07 0.06 0.04 0.03 0.02 0.02 0.04 0.05 0.03 0.02 0.01 0.02 0.02 0.01 0.01 0.01 0.02 0.03 0.02
0.01 0.02 0.02 0.01 0.01 0.01 0.03 0.04 0.02 0.02 0.01 0.01 0.01 0.01 0.01 0.01 0.01 0.00 0.01 0.01 0.02 0.02 0.02 0.03 0.04 0.05 0.05 0.04 0.03 0.02 0.02 0.02 0.07 0.06 0.03 0.02 0.02 0.02 0.02 0.03 0.03 0.03 0.04 0.03
0.01 0.02 0.02 0.01 0.01 0.01 0.02 0.02 0.01 0.02 0.02 0.01 0.01 0.00 0.01 0.01 0.01 0.01 0.02 0.02 0.03 0.02 0.02 0.03 0.04 0.04 0.04 0.03 0.02 0.01 0.01 0.02 0.04 0.04 0.02 0.02 0.02 0.02 0.03 0.02 0.03 0.03 0.03 0.04
0.02 0.02 0.01 0.01 0.01 0.02 0.02 0.02 0.01 0.02 0.02 0.00 0.01 0.01 0.01 0.01 0.01 0.01 0.02 0.02 0.03 0.03 0.03 0.03 0.04 0.04 0.03 0.02 0.02 0.02 0.01 0.02 0.02 0.02 0.02 0.01 0.01 0.01 0.02 0.02 0.02 0.02 0.02 0.02
0.01 0.01 0.01 0.01 0.02 0.03 0.02 0.01 0.01 0.01 0.01 0.01 0.00 0.00 0.01 0.01 0.01 0.01 0.02 0.02 0.01 0.02 0.02 0.03 0.04 0.03 0.02 0.02 0.02 0.02 0.02 0.02 0.02 0.01 0.01 0.01 0.02 0.02 0.02 0.02 0.02 0.02 0.02 0.02
0.01 0.01 0.01 0.02 0.03 0.02 0.01 0.01 0.01 0.02 0.01 0.01 0.01 0.00 0.01 0.01 0.00 0.01 0.01 0.01 0.02 0.02 0.02 0.02 0.02 0.02 0.01 0.01 0.01 0.02 0.02 0.02 0.02 0.02 0.02 0.02 0.02 0.02 0.02 0.02 0.02 0.03 0.02 0.02
0.01 0.01 0.01 0.03 0.02 0.01 0.01 0.00 0.01 0.02 0.02 0.02 0.01 0.00 0.00 0.00 0.00 0.00 0.01 0.01 0.01 0.02 0.02 0.01 0.01 0.01 0.01 0.01 0.01 0.02 0.01 0.02 0.02 0.02 0.03 0.03 0.03 0.03 0.04 0.04 0.03 0.05 0.04 0.03
0.00 0.00 0.01 0.03 0.02 0.01 0.01 0.01 0.01 0.02 0.02 0.02 0.01 0.00 0.00 0.00 0.00 0.00 0.00 0.00 0.01 0.01 0.01 0.01 0.01 0.00 0.01 0.01 0.01 0.02 0.02 0.02 0.02 0.03 0.02 0.03 0.03 0.05 0.04 0.03 0.03 0.04 0.03 0.03
0.00 0.00 0.01 0.02 0.02 0.02 0.01 0.01 0.01 0.01 0.01 0.00 0.00 0.00 0.00 0.00 0.00 0.00 0.00 0.00 0.00 0.00 0.00 0.01 0.01 0.01 0.00 0.00 0.01 0.01 0.02 0.03 0.02 0.02 0.02 0.02 0.03 0.03 0.03 0.02 0.02 0.03 0.03 0.02
0.00 0.00 0.01 0.02 0.02 0.02 0.01 0.01 0.00 0.00 0.00 0.00 0.00 0.00 0.00 0.00 0.00 0.00 0.00 0.00 0.00 0.00 0.00 0.00 0.00 0.01 0.01 0.00 0.00 0.00 0.01 0.03 0.03 0.03 0.03 0.03 0.03 0.03 0.03 0.03 0.03 0.03 0.02 0.02
0.00 0.00 0.01 0.02 0.02 0.02 0.01 0.01 0.01 0.01 0.01 0.00 0.00 0.00 0.00 0.00 0.00 0.00 0.00 0.00 0.00 0.00 0.00 0.00 0.00 0.00 0.01 0.01 0.01 0.00 0.01 0.01 0.02 0.03 0.04 0.04 0.04 0.04 0.04 0.04 0.03 0.02 0.02 0.02
0.00 0.00 0.01 0.02 0.02 0.02 0.01 0.01 0.00 0.00 0.01 0.00 0.00 0.00 0.00 0.00 0.00 0.00 0.00 0.00 0.00 0.00 0.00 0.00 0.00 0.00 0.00 0.01 0.01 0.01 0.00 0.01 0.02 0.02 0.04 0.04 0.03 0.04 0.04 0.04 0.04 0.03 0.03 0.03
0.00 0.00 0.00 0.01 0.02 0.02 0.01 0.00 0.00 0.00 0.00 0.00 0.00 0.00 0.00 0.00 0.00 0.00 0.00 0.00 0.00 0.00 0.00 0.00 0.00 0.00 0.00 0.00 0.00 0.00 0.00 0.00 0.01 0.01 0.02 0.03 0.02 0.02 0.02 0.02 0.01 0.01 0.01 0.01
0.00 0.00 0.00 0.01 0.01 0.02 0.01 0.00 0.00 0.00 0.00 0.00 0.00 0.00 0.00 0.00 0.00 0.00 0.00 0.00 0.00 0.00 0.00 0.00 0.00 0.00 0.00 0.00 0.00 0.00 0.00 0.00 0.00 0.01 0.01 0.01 0.02 0.02 0.02 0.01 0.01 0.01 0.01 0.01
0.00 0.00 0.00 0.00 0.01 0.02 0.02 0.01 0.00 0.00 0.00 0.00 0.00 0.00 0.00 0.00 0.00 0.00 0.00 0.00 0.00 0.00 0.00 0.00 0.00 0.00 0.00 0.00 0.01 0.00 0.01 0.01 0.01 0.00 0.01 0.01 0.01 0.01 0.01 0.01 0.01 0.01 0.00 0.00
0.00 0.00 0.00 0.01 0.01 0.02 0.02 0.01 0.00 0.00 0.00 0.00 0.00 0.00 0.00 0.00 0.00 0.00 0.00 0.00 0.00 0.00 0.00 0.00 0.00 0.00 0.01 0.01 0.01 0.01 0.01 0.01 0.01 0.01 0.01 0.01 0.01 0.01 0.01 0.00 0.00 0.00 0.00 0.00
0.01 0.01 0.01 0.01 0.01 0.02 0.03 0.03 0.02 0.01 0.01 0.01 0.01 0.00 0.00 0.00 0.00 0.00 0.00 0.00 0.00 0.00 0.00 0.00 0.00 0.00 0.01 0.01 0.01 0.00 0.00 0.00 0.00 0.00 0.00 0.00 0.01 0.01 0.01 0.00 0.00 0.00 0.00 0.00
0.01 0.01 0.02 0.02 0.02 0.02 0.02 0.02 0.02 0.01 0.01 0.01 0.00 0.00 0.00 0.00 0.00 0.00 0.00 0.01 0.01 0.00 0.00 0.00 0.00 0.00 0.01 0.00 0.00 0.01 0.01 0.01 0.01 0.01 0.00 0.00 0.01 0.01 0.01 0.01 0.01 0.01 0.01 0.01
0.02 0.01 0.01 0.01 0.01 0.01 0.01 0.01 0.01 0.01 0.01 0.00 0.00 0.00 0.00 0.00 0.00 0.00 0.00 0.01 0.01 0.00 0.00 0.00 0.00 0.00 0.00 0.00 0.00 0.01 0.01 0.01 0.01 0.01 0.00 0.00 0.00 0.00 0.00 0.00 0.01 0.01 0.01 0.01
0.02 0.02 0.02 0.01 0.01 0.01 0.01 0.01 0.01 0.01 0.01 0.01 0.00 0.00 0.00 0.00 0.01 0.00 0.00 0.00 0.00 0.01 0.00 0.00 0.01 0.01 0.01 0.01 0.01 0.01 0.01 0.01 0.01 0.01 0.00 0.00 0.00 0.00 0.00 0.00 0.00 0.00 0.00 0.00
0.01 0.01 0.01 0.01 0.01 0.01 0.01 0.01 0.00 0.00 0.01 0.01 0.01 0.01 0.00 0.01 0.01 0.01 0.01 0.01 0.01 0.01 0.01 0.01 0.01 0.01 0.01 0.01 0.01 0.01 0.01 0.01 0.01 0.01 0.01 0.00 0.00 0.00 0.00 0.00 0.00 0.00 0.00 0.00
0.01 0.00 0.00 0.00 0.00 0.00 0.00 0.00 0.00 0.00 0.01 0.01 0.02 0.02 0.02 0.02 0.01 0.01 0.01 0.02 0.02 0.02 0.01 0.01 0.02 0.01 0.01 0.01 0.01 0.01 0.01 0.01 0.01 0.01 0.01 0.01 0.01 0.01 0.01 0.01 0.00 0.00 0.00 0.00
MSLP
1005.55 1004.97 1004.53 1004.26 1004.17 1004.26 1004.47 1004.72 1004.94 1005.02 1004.89 1004.52 1003.86 1002.96 1001.88 1000.71 999.55 998.52 997.70 997.19 997.02 997.20 997.71 998.50 999.51 1000.67 1001.89 1003.13 1004.31 1005.42 1006.44 1007.37 1008.22 1009.00 1009.73 1010.44 1011.12 1011.79 1012.45 1013.09 1013.73 1014.34 1014.94 1015.53
1004.92 1004.39 1003.98 1003.72 1003.64 1003.72 1003.93 1004.19 1004.41 1004.50 1004.39 1004.01 1003.34 1002.41 1001.27 1000.02 998.76 997.63 996.72 996.14 995.94 996.14 996.72 997.61 998.76 1000.06 1001.43 1002.78 1004.06 1005.22 1006.26 1007.17 1007.99 1008.73 1009.43 1010.12 1010.81 1011.51 1012.22 1012.93 1013.63 1014.31 1014.95 1015.56
1004.55 1004.11 1003.76 1003.53 1003.44 1003.48 1003.62 1003.78 1003.90 1003.90 1003.68 1003.22 1002.47 1001.47 1000.27 998.96 997.66 996.50 995.59 995.03 994.88 995.15 995.83 996.84 998.12 999.55 1001.03 1002.48 1003.82 1005.02 1006.06 1006.96 1007.74 1008.45 1009.12 1009.79 1010.49 1011.22 1011.98 1012.75 1013.51 1014.24 1014.93 1015.57
1004.51 1004.19 1003.92 1003.73 1003.62 1003.59 1003.60 1003.60 1003.53 1003.34 1002.94 1002.32 1001.44 1000.34 999.08 997.76 996.47 995.35 994.50 994.02 993.97 994.35 995.13 996.26 997.64 999.16 1000.72 1002.22 1003.59 1004.80 1005.83 1006.71 1007.46 1008.14 1008.80 1009.46 1010.17 1010.92 1011.71 1012.53 1013.33 1014.11 1014.83 1015.48
1004.80 1004.61 1004.45 1004.29 1004.16 1004.03 1003.89 1003.69 1003.40 1002.96 1002.35 1001.53 1000.51 999.32 998.03 996.72 995.49 994.45 993.70 993.33 993.38 993.86 994.72 995.91 997.34 998.89 1000.46 1001.96 1003.33 1004.52 1005.54 1006.40 1007.14 1007.81 1008.46 1009.13 1009.85 1010.62 1011.43 1012.26 1013.09 1013.88 1014.61 1015.26
1005.36 1005.30 1005.22 1005.10 1004.95 1004.73 1004.44 1004.05 1003.54 1002.88 1002.06 1001.07 999.93 998.68 997.39 996.12 994.98 994.04 993.41 993.13 993.26 993.79 994.67 995.85 997.23 998.73 1000.25 1001.70 1003.02 1004.18 1005.18 1006.03 1006.78 1007.46 1008.13 1008.82 1009.54 1010.32 1011.13 1011.95 1012.77 1013.55 1014.26 1014.91
1006.09 1006.11 1006.10 1006.02 1005.85 1005.57 1005.16 1004.63 1003.95 1003.13 1002.16 1001.07 999.87 998.62 997.36 996.17 995.13 994.30 993.75 993.54 993.69 994.18 995.00 996.07 997.33 998.69 1000.07 1001.41 1002.65 1003.76 1004.74 1005.60 1006.38 1007.10 1007.81 1008.52 1009.27 1010.04 1010.83 1011.63 1012.41 1013.14 1013.82 1014.44
1006.84 1006.91 1006.93 1006.88 1006.70 1006.39 1005.93 1005.32 1004.56 1003.67 1002.65 1001.54 1000.36 999.17 998.01 996.93 995.99 995.25 994.76 994.55 994.65 995.03 995.68 996.55 997.59 998.73 999.92 1001.09 1002.21 1003.26 1004.22 1005.11 1005.93 1006.72 1007.49 1008.25 1009.02 1009.79 1010.56 1011.30 1012.02 1012.69 1013.32 1013.89
1007.50 1007.57 1007.60 1007.55 1007.38 1007.07 1006.61 1006.01 1005.26 1004.39 1003.42 1002.39 1001.32 1000.25 999.23 998.29 997.47 996.80 996.33 996.07 996.04 996.23 996.64 997.23 997.98 998.84 999.78 1000.75 1001.74 1002.71 1003.65 1004.57 1005.46 1006.32 1007.17 1007.99 1008.79 1009.56 1010.29 1010.99 1011.64 1012.24 1012.79 1013.31
1008.02 1008.03 1008.02 1007.96 1007.80 1007.52 1007.10 1006.56 1005.90 1005.14 1004.32 1003.44 1002.55 1001.67 1000.83 1000.04 999.33 998.73 998.24 997.89 997.69 997.65 997.77 998.04 998.45 999.00 999.66 1000.42 1001.25 1002.13 1003.06 1004.00 1004.96 1005.90 1006.83 1007.71 1008.55 1009.33 1010.04 1010.68 1011.26 1011.79 1012.28 1012.75
1008.42 1008.33 1008.25 1008.14 1007.97 1007.72 1007.37 1006.93 1006.40 1005.81 1005.17 1004.51 1003.84 1003.18 1002.53 1001.91 1001.31 1000.75 1000.24 999.79 999.41 999.12 998.94 998.89 998.97 999.20 999.58 1000.12 1000.79 1001.58 1002.47 1003.44 1004.44 1005.45 1006.45 1007.39 1008.26 1009.05 1009.74 1010.35 1010.88 1011.35 1011.78 1012.21
1008.79 1008.56 1008.37 1008.20 1008.00 1007.76 1007.46 1007.12 1006.73 1006.32 1005.88 1005.43 1004.99 1004.54 1004.08 1003.61 1003.12 1002.61 1002.08 1001.53 1000.99 1000.49 1000.05 999.71 999.50 999.45 999.59 999.91 1000.43 1001.12 1001.95 1002.90 1003.92 1004.98 1006.01 1006.99 1007.89 1008.68 1009.37 1009.96 1010.46 1010.90 1011.30 1011.71
1009.23 1008.87 1008.56 1008.28 1008.02 1007.77 1007.50 1007.22 1006.94 1006.66 1006.39 1006.13 1005.87 1005.60 1005.31 1004.97 1004.58 1004.11 1003.57 1002.97 1002.32 1001.67 1001.04 1000.48 1000.05 999.78 999.71 999.85 1000.22 1000.79 1001.55 1002.45 1003.44 1004.48 1005.51 1006.49 1007.40 1008.20 1008.88 1009.47 1009.96 1010.40 1010.80 1011.21
1009.86 1009.36 1008.93 1008.55 1008.20 1007.89 1007.60 1007.35 1007.12 1006.92 1006.75 1006.60 1006.47 1006.33 1006.15 1005.92 1005.60 1005.19 1004.67 1004.06 1003.36 1002.63 1001.90 1001.22 1000.65 1000.23 1000.00 1000.00 1000.22 1000.66 1001.30 1002.10 1003.01 1003.98 1004.96 1005.90 1006.78 1007.56 1008.24 1008.84 1009.35 1009.81 1010.24 1010.68
1010.70 1010.11 1009.56 1009.07 1008.63 1008.24 1007.90 1007.61 1007.37 1007.18 1007.04 1006.94 1006.86 1006.77 1006.66 1006.48 1006.23 1005.87 1005.40 1004.81 1004.14 1003.41 1002.66 1001.95 1001.32 1000.82 1000.49 1000.37 1000.46 1000.76 1001.25 1001.90 1002.67 1003.51 1004.37 1005.23 1006.04 1006.78 1007.45 1008.05 1008.60 1009.10 1009.59 1010.07
1011.71 1011.05 1010.43 1009.85 1009.32 1008.85 1008.43 1008.07 1007.78 1007.55 1007.37 1007.24 1007.14 1007.05 1006.95 1006.80 1006.57 1006.26 1005.85 1005.34 1004.74 1004.08 1003.39 1002.71 1002.09 1001.58 1001.20 1000.98 1000.95 1001.10 1001.41 1001.87 1002.45 1003.10 1003.80 1004.52 1005.22 1005.89 1006.53 1007.13 1007.71 1008.26 1008.80 1009.34
1012.74 1012.08 1011.43 1010.80 1010.21 1009.66 1009.17 1008.74 1008.36 1008.05 1007.80 1007.60 1007.44 1007.29 1007.16 1006.99 1006.79 1006.52 1006.18 1005.76 1005.26 1004.71 1004.13 1003.54 1002.99 1002.49 1002.09 1001.81 1001.66 1001.65 1001.77 1002.01 1002.36 1002.79 1003.28 1003.82 1004.38 1004.95 1005.53 1006.12 1006.70 1007.29 1007.88 1008.48
1013.64 1013.01 1012.38 1011.75 1011.14 1010.57 1010.02 1009.53 1009.08 1008.69 1008.35 1008.05 1007.81 1007.59 1007.40 1007.20 1007.00 1006.76 1006.48 1006.16 1005.78 1005.36 1004.90 1004.43 1003.96 1003.52 1003.12 1002.79 1002.53 1002.37 1002.29 1002.31 1002.41 1002.60 1002.86 1003.20 1003.59 1004.03 1004.53 1005.06 1005.64 1006.24 1006.86 1007.49
1014.24 1013.69 1013.12 1012.54 1011.97 1011.40 1010.86 1010.34 1009.85 1009.40 1008.99 1008.61 1008.29 1008.00 1007.74 1007.51 1007.29 1007.07 1006.85 1006.60 1006.33 1006.04 1005.70 1005.35 1004.97 1004.58 1004.20 1003.83 1003.48 1003.17 1002.92 1002.72 1002.60 1002.55 1002.58 1002.70 1002.91 1003.21 1003.59 1004.05 1004.58 1005.16 1005.77 1006.41
1014.45 1014.00 1013.53 1013.04 1012.55 1012.04 1011.54 1011.05 1010.57 1010.10 1009.65 1009.23 1008.84 1008.50 1008.19 1007.92 1007.69 1007.48 1007.29 1007.10 1006.92 1006.71 1006.48 1006.22 1005.92 1005.58 1005.21 1004.81 1004.40 1003.98 1003.57 1003.20 1002.88 1002.62 1002.45 1002.37 1002.41 1002.55 1002.80 1003.16 1003.60 1004.12 1004.70 1005.30
1014.29 1013.96 1013.60 1013.23 1012.84 1012.44 1012.02 1011.60 1011.16 1010.71 1010.27 1009.84 1009.44 1009.06 1008.72 1008.42 1008.16 1007.95 1007.77 1007.62 1007.48 1007.33 1007.17 1006.97 1006.72 1006.42 1006.06 1005.65 1005.19 1004.69 1004.18 1003.68 1003.21 1002.80 1002.46 1002.22 1002.10 1002.09 1002.21 1002.45 1002.79 1003.21 1003.70 1004.23
1013.89 1013.66 1013.43 1013.17 1012.90 1012.61 1012.30 1011.97 1011.60 1011.22 1010.81 1010.41 1010.00 1009.62 1009.26 1008.94 1008.67 1008.44 1008.25 1008.10 1007.97 1007.84 1007.70 1007.53 1007.31 1007.03 1006.69 1006.27 1005.79 1005.26 1004.69 1004.12 1003.56 1003.05 1002.60 1002.24 1002.00 1001.86 1001.85 1001.96 1002.17 1002.47 1002.84 1003.26
1013.42 1013.29 1013.15 1013.00 1012.84 1012.66 1012.45 1012.21 1011.93 1011.61 1011.26 1010.89 1010.52 1010.14 1009.78 1009.44 1009.15 1008.89 1008.68 1008.50 1008.35 1008.21 1008.06 1007.88 1007.67 1007.39 1007.05 1006.65 1006.17 1005.64 1005.07 1004.48 1003.90 1003.34 1002.84 1002.41 1002.08 1001.84 1001.72 1001.69 1001.77 1001.93 1002.16 1002.44
1013.08 1013.01 1012.95 1012.88 1012.80 1012.71 1012.58 1012.41 1012.20 1011.94 1011.65 1011.32 1010.96 1010.60 1010.24 1009.89 1009.57 1009.28 1009.03 1008.80 1008.60 1008.42 1008.23 1008.03 1007.79 1007.51 1007.18 1006.79 1006.34 1005.84 1005.31 1004.75 1004.19 1003.65 1003.14 1002.69 1002.31 1002.00 1001.77 1001.63 1001.57 1001.59 1001.66 1001.80
1013.01 1012.98 1012.97 1012.94 1012.91 1012.86 1012.77 1012.65 1012.48 1012.26 1012.00 1011.69 1011.36 1011.00 1010.64 1010.27 1009.92 1009.59 1009.29 1009.01 1008.75 1008.50 1008.26 1008.01 1007.75 1007.45 1007.13 1006.76 1006.35 1005.90 1005.43 1004.93 1004.43 1003.93 1003.46 1003.02 1002.62 1002.26 1001.97 1001.72 1001.54 1001.41 1001.34 1001.31
1013.27 1013.26 1013.26 1013.24 1013.22 1013.17 1013.09 1012.97 1012.81 1012.60 1012.34 1012.04 1011.71 1011.35 1010.98 1010.60 1010.21 1009.84 1009.48 1009.14 1008.82 1008.51 1008.21 1007.91 1007.61 1007.29 1006.97 1006.62 1006.25 1005.86 1005.45 1005.03 1004.60 1004.18 1003.75 1003.34 1002.94 1002.57 1002.21 1001.89 1001.60 1001.34 1001.13 1000.96
1013.80 1013.80 1013.78 1013.76 1013.71 1013.64 1013.53 1013.38 1013.19 1012.96 1012.69 1012.38 1012.04 1011.66 1011.27 1010.87 1010.46 1010.05 1009.65 1009.25 1008.87 1008.50 1008.14 1007.79 1007.45 1007.11 1006.77 1006.44 1006.10 1005.76 1005.41 1005.06 1004.71 1004.34 1003.97 1003.59 1003.21 1002.82 1002.43 1002.04 1001.67 1001.31 1000.98 1000.68
Thickness
5689 5694 5693 5686 5684 5685 5681 5678 5670 5673 5673 5677 5678 5676 5675 5675 5674 5670 5669 5666 5664 5661 5660 5658 5657 5655 5653 5650 5648 5646 5643 5640 5636 5634 5631 5629 5626 5624 5622 5619 5617 5614 5611 5609
5680 5688 5686 5681 5683 5682 5678 5677 5673 5671 5668 5677 5677 5673 5668 5666 5664 5660 5659 5658 5656 5655 5653 5651 5649 5647 5645 5644 5642 5640 5636 5632 5630 5627 5623 5620 5618 5615 5612 5609 5606 5603 5600 5598
5666 5679 5676 5666 5676 5677 5674 5674 5670 5661 5662 5667 5665 5662 5660 5658 5656 5653 5652 5650 5649 5647 5646 5644 5643 5641 5638 5637 5635 5632 5628 5625 5622 5619 5615 5611 5609 5606 5602 5599 5596 5593 5590 5587
5661 5664 5649 5664 5682 5678 5668 5664 5666 5663 5660 5660 5657 5657 5656 5654 5650 5648 5646 5643 5642 5641 5639 5638 5637 5635 5633 5630 5627 5624 5620 5617 5614 5610 5606 5603 5600 5596 5593 5590 5587 5584 5581 5578
5652 5648 5651 5661 5667 5667 5659 5652 5658 5655 5653 5652 5652 5650 5647 5649 5647 5643 5640 5638 5635 5634 5633 5631 5629 5627 5625 5622 5619 5615 5612 5609 5606 5603 5599 5595 5592 5588 5585 5582 5579 5576 5574 5571
5646 5638 5637 5648 5661 5666 5657 5641 5650 5649 5645 5643 5642 5632 5633 5640 5639 5637 5634 5632 5629 5627 5626 5623 5621 5619 5616 5613 5611 5608 5605 5602 5598 5595 5591 5588 5585 5582 5579 5576 5572 5569 5567 5565
5638 5635 5638 5648 5654 5655 5632 5630 5642 5642 5639 5636 5631 5628 5630 5633 5631 5629 5626 5624 5622 5619 5616 5615 5614 5612 5608 5605 5603 5601 5598 5595 5591 5587 5584 5581 5578 5575 5572 5569 5565 5563 5560 5559
5633 5626 5626 5643 5643 5634 5630 5637 5636 5634 5631 5628 5626 5625 5625 5624 5622 5621 5618 5616 5613 5610 5608 5607 5606 5604 5600 5597 5596 5594 5591 5588 5584 5581 5578 5575 5571 5568 5565 5562 5558 5556 5553 5551
5628 5625 5632 5637 5634 5634 5633 5629 5627 5624 5623 5621 5617 5616 5616 5614 5613 5612 5609 5607 5605 5602 5599 5598 5597 5596 5592 5590 5589 5586 5583 5580 5577 5575 5572 5568 5565 5561 5558 5555 5552 5550 5547 5545
5625 5626 5628 5628 5628 5626 5624 5621 5619 5618 5616 5613 5610 5608 5607 5605 5603 5601 5600 5598 5596 5593 5590 5589 5589 5588 5586 5584 5582 5579 5576 5573 5570 5567 5564 5561 5558 5556 5552 5549 5546 5544 5541 5539
5617 5619 5620 5620 5619 5618 5616 5615 5613 5612 5609 5606 5604 5601 5599 5596 5594 5592 5591 5589 5587 5585 5583 5581 5581 5579 5578 5576 5574 5571 5568 5566 5563 5560 5557 5554 5551 5548 5546 5544 5542 5539 5537 5534
5607 5613 5611 5610 5612 5611 5608 5605 5603 5602 5600 5599 5597 5595 5592 5589 5587 5586 5583 5582 5580 5578 5576 5575 5573 5571 5569 5568 5567 5564 5561 5558 5555 5552 5549 5546 5543 5540 5538 5537 5536 5534 5533 5531
5608 5609 5607 5606 5605 5604 5600 5598 5596 5594 5592 5590 5590 5588 5586 5583 5581 5579 5577 5575 5574 5572 5570 5568 5566 5564 5562 5560 5559 5556 5553 5551 5548 5545 5542 5540 5537 5534 5531 5529 5528 5527 5527 5525
5603 5601 5597 5597 5595 5595 5593 5591 5590 5588 5586 5585 5583 5581 5579 5576 5574 5572 5570 5569 5568 5566 5563 5561 5559 5557 5556 5554 5551 5549 5547 5544 5541 5538 5536 5533 5532 5530 5528 5525 5522 5520 5519 5518
5593 5593 5590 5589 5588 5586 5585 5583 5580 5578 5577 5577 5575 5573 5571 5569 5567 5566 5565 5563 5561 5559 5557 5555 5552 5551 5550 5548 5545 5543 5540 5537 5534 5531 5530 5528 5527 5525 5523 5520 5517 5515 5512 5510
5584 5584 5582 5580 5578 5577 5575 5574 5571 5570 5569 5569 5567 5565 5564 5562 5561 5559 5557 5556 5553 5551 5550 5548 5546 5544 5543 5541 5539 5536 5533 5532 5529 5526 5524 5522 5521 5519 5517 5514 5512 5509 5507 5504
5574 5573 5572 5570 5570 5569 5567 5566 5565 5563 5562 5561 5559 5558 5556 5555 5553 5551 5549 5548 5547 5545 5543 5541 5539 5537 5536 5534 5531 5529 5527 5525 5523 5521 5518 5517 5515 5513 5511 5509 5506 5504 5501 5499
5569 5567 5566 5565 5563 5561 5560 5559 5558 5556 5554 5553 5552 5550 5548 5546 5544 5543 5542 5541 5539 5537 5536 5534 5532 5530 5529 5526 5524 5522 5521 5519 5517 5515 5513 5511 5509 5508 5505 5503 5501 5498 5496 5493
5561 5560 5559 5558 5557 5554 5552 5551 5550 5548 5547 5546 5544 5541 5540 5538 5536 5535 5534 5533 5530 5528 5527 5526 5525 5523 5521 5519 5517 5515 5514 5512 5510 5509 5507 5505 5503 5501 5499 5497 5495 5493 5490 5488
5551 5551 5550 5550 5548 5546 5544 5543 5541 5540 5539 5538 5536 5534 5532 5531 5529 5528 5527 5524 5523 5521 5520 5519 5517 5515 5513 5511 5509 5508 5506 5505 5503 5502 5500 5498 5496 5494 5493 5491 5489 5487 5485 5482
5542 5542 5541 5540 5539 5537 5536 5534 5533 5531 5530 5529 5527 5525 5524 5523 5522 5521 5519 5516 5515 5514 5512 5511 5509 5506 5505 5503 5502 5500 5499 5498 5496 5494 5493 5491 5489 5487 5486 5484 5482 5481 5479 5477
5533 5532 5531 5530 5529 5528 5527 5526 5525 5523 5522 5520 5519 5517 5516 5515 5514 5513 5512 5510 5508 5506 5504 5502 5500 5499 5497 5496 5494 5493 5492 5491 5489 5487 5486 5484 5482 5480 5479 5477 5476 5474 5472 5470
5525 5524 5523 5522 5521 5520 5519 5517 5516 5514 5513 5512 5511 5510 5508 5507 5507 5505 5504 5503 5500 5498 5496 5495 5493 5491 5490 5488 5487 5485 5484 5483 5482 5480 5479 5477 5476 5474 5473 5471 5469 5468 5465 5463
5518 5517 5516 5515 5513 5512 5510 5508 5507 5506 5505 5504 5503 5502 5500 5499 5498 5497 5495 5494 5492 5490 5489 5487 5486 5484 5483 5481 5480 5479 5477 5476 5474 5473 5472 5471 5469 5468 5466 5465 5463 5461 5459 5457
5510 5509 5508 5507 5505 5503 5502 5501 5499 5498 5497 5495 5494 5493 5492 5491 5489 5488 5487 5485 5484 5482 5480 5479 5478 5477 5475 5474 5473 5472 5470 5469 5467 5466 5465 5464 5462 5461 5459 5458 5456 5454 5452 5450
5502 5501 5500 5499 5498 5497 5496 5494 5492 5490 5488 5486 5485 5484 5483 5482 5481 5479 5478 5477 5476 5474 5473 5472 5470 5469 5468 5467 5466 5465 5464 5462 5460 5459 5458 5456 5455 5453 5452 5451 5449 5447 5445 5443
5495 5494 5493 5492 5491 5490 5489 5487 5484 5482 5480 5478 5476 5475 5474 5473 5472 5470 5470 5469 5468 5466 5465 5464 5463 5462 5461 5460 5459 5458 5457 5456 5454 5452 5451 5449 5448 5446 5445 5443 5442 5440 5438 5436